timestamp,surface_pressure_avg,surface_temp_avg,battery_voltage,lat,long
2021-09-18 00:09:01+00:00,278.5864,15.9,12.73,47.84626,-54.09684
2021-09-18 00:19:01+00:00,272.9331,15.9,12.73,47.84626,-54.09684
2021-09-18 00:29:01+00:00,265.4281,15.9,12.73,47.84626,-54.09684
2021-09-18 00:39:01+00:00,253.8114,15.9,12.73,47.84626,-54.09684
2021-09-18 00:49:01+00:00,248.3681,15.9,12.73,47.84626,-54.09684
2021-09-18 00:59:01+00:00,243.1814,15.9,12.73,47.84626,-54.09684
2021-09-18 01:09:01+00:00,234.4231,15.9,12.73,47.84626,-54.09684
2021-09-18 01:19:01+00:00,227.1748,15.9,12.73,47.84626,-54.09684
2021-09-18 01:29:01+00:00,222.6698,15.9,12.73,47.84626,-54.09684
2021-09-18 01:39:01+00:00,217.7214,15.9,12.73,47.84626,-54.09684
2021-09-18 01:49:01+00:00,211.1265,15.9,12.73,47.84626,-54.09684
2021-09-18 01:59:01+00:00,206.5548,15.9,12.73,47.84626,-54.09684
2021-09-18 02:09:01+00:00,205.6298,15.9,12.73,47.84626,-54.09684
2021-09-18 02:19:01+00:00,202.4665,15.9,12.73,47.84626,-54.09684
2021-09-18 02:29:01+00:00,198.4697,15.9,12.73,47.84626,-54.09684
2021-09-18 02:39:01+00:00,196.9015,15.9,12.73,47.84626,-54.09684
2021-09-18 02:49:01+00:00,194.2014,15.9,12.73,47.84626,-54.09684
2021-09-18 02:59:01+00:00,190.9765,15.9,12.73,47.84626,-54.09684
2021-09-18 03:09:01+00:00,192.9898,15.88,12.73,47.84626,-54.09684
2021-09-18 03:19:01+00:00,195.2598,15.88,12.73,47.84626,-54.09684
2021-09-18 03:29:01+00:00,190.5448,15.85,12.73,47.84626,-54.09684
2021-09-18 03:39:01+00:00,189.9098,15.8,12.73,47.84626,-54.09684
2021-09-18 03:49:01+00:00,193.1548,15.83,12.73,47.84626,-54.09684
2021-09-18 03:59:01+00:00,190.1631,15.84,12.73,47.84626,-54.09684
2021-09-18 04:09:01+00:00,188.5482,15.8,12.73,47.84626,-54.09684
2021-09-18 04:19:00+00:00,191.7698,15.8,12.73,47.84626,-54.09684
2021-09-18 04:29:00+00:00,194.1631,15.8,12.73,47.84626,-54.09684
2021-09-18 04:39:00+00:00,192.7215,15.86,12.73,47.84626,-54.09684
2021-09-18 04:49:00+00:00,193.9498,15.9,12.73,47.84626,-54.09684
2021-09-18 04:59:00+00:00,198.3065,15.9,12.73,47.84626,-54.09684
2021-09-18 05:09:00+00:00,204.6365,15.9,12.73,47.84626,-54.09684
2021-09-18 05:19:01+00:00,206.6681,15.93,12.73,47.84626,-54.09684
2021-09-18 05:29:01+00:00,205.8931,15.98,12.73,47.84626,-54.09684
2021-09-18 05:39:01+00:00,206.9764,16.0,12.73,47.84626,-54.09684
2021-09-18 05:49:01+00:00,210.4864,16.0,12.73,47.84626,-54.09684
2021-09-18 05:59:01+00:00,213.4181,16.0,12.73,47.84626,-54.09684
2021-09-18 06:09:01+00:00,219.2365,16.0,12.73,47.84626,-54.09684
2021-09-18 06:19:00+00:00,226.7431,16.0,12.73,47.84626,-54.09684
2021-09-18 06:29:00+00:00,231.3481,15.99,12.73,47.84626,-54.09684
2021-09-18 06:39:00+00:00,236.7131,15.99,12.73,47.84626,-54.09684
2021-09-18 06:49:00+00:00,243.3814,16.0,12.73,47.84626,-54.09684
2021-09-18 06:59:00+00:00,248.3414,16.0,12.73,47.84626,-54.09684
2021-09-18 07:09:00+00:00,253.1514,16.0,12.73,47.84626,-54.09684
2021-09-18 07:19:01+00:00,259.8498,16.0,12.73,47.84626,-54.09684
2021-09-18 07:29:01+00:00,265.7731,16.0,12.73,47.84626,-54.09684
2021-09-18 07:39:01+00:00,270.9814,16.0,12.73,47.84626,-54.09684
2021-09-18 07:49:01+00:00,278.4497,16.0,12.73,47.84626,-54.09684
2021-09-18 07:59:01+00:00,284.4964,16.0,12.73,47.84626,-54.09684
2021-09-18 08:09:01+00:00,287.3831,16.0,12.73,47.84626,-54.09684
2021-09-18 08:19:01+00:00,289.4864,16.0,12.65,47.84626,-54.09684
2021-09-18 08:29:01+00:00,295.7164,16.0,12.65,47.84626,-54.09684
2021-09-18 08:39:01+00:00,301.278,16.0,12.65,47.84626,-54.09684
2021-09-18 08:49:01+00:00,302.2064,15.97,12.65,47.84626,-54.09684
2021-09-18 08:59:01+00:00,301.778,15.9,12.65,47.84626,-54.09684
2021-09-18 09:09:01+00:00,304.4346,15.9,12.65,47.84626,-54.09684
2021-09-18 09:19:00+00:00,306.853,15.9,12.65,47.84626,-54.09684
2021-09-18 09:29:00+00:00,304.8697,15.89,12.65,47.84626,-54.09684
2021-09-18 09:39:00+00:00,306.1114,15.88,12.65,47.84626,-54.09684
2021-09-18 09:49:00+00:00,305.5397,15.85,12.65,47.84626,-54.09684
2021-09-18 09:59:00+00:00,305.1813,15.81,12.65,47.84626,-54.09684
2021-09-18 10:09:00+00:00,306.1064,15.8,12.65,47.84626,-54.09684
2021-09-18 10:19:01+00:00,306.198,15.8,12.65,47.84626,-54.09684
2021-09-18 10:29:01+00:00,304.7863,15.82,12.65,47.84626,-54.09684
2021-09-18 10:39:01+00:00,302.5213,15.8,12.65,47.84626,-54.09684
2021-09-18 10:49:01+00:00,301.5714,15.8,12.65,47.84626,-54.09684
2021-09-18 10:59:01+00:00,301.2681,15.8,12.65,47.84626,-54.09684
2021-09-18 11:09:01+00:00,299.963,15.8,12.65,47.84626,-54.09684
2021-09-18 11:19:01+00:00,297.3497,15.8,12.73,47.84626,-54.09684
2021-09-18 11:29:01+00:00,291.7281,15.8,12.73,47.84626,-54.09684
2021-09-18 11:39:01+00:00,290.3447,15.8,12.73,47.84626,-54.09684
2021-09-18 11:49:01+00:00,289.5664,15.8,12.73,47.84626,-54.09684
2021-09-18 11:59:01+00:00,281.9998,15.8,12.73,47.84626,-54.09684
2021-09-18 12:09:01+00:00,271.3881,15.8,12.73,47.84626,-54.09684
2021-09-18 12:19:00+00:00,267.0714,15.8,12.81,47.84626,-54.09684
2021-09-18 12:29:00+00:00,259.4948,15.8,12.81,47.84626,-54.09684
2021-09-18 12:39:00+00:00,249.1214,15.8,12.81,47.84626,-54.09684
2021-09-18 12:49:00+00:00,242.3547,15.8,12.81,47.84626,-54.09684
2021-09-18 12:59:00+00:00,240.1381,15.8,12.81,47.84626,-54.09684
2021-09-18 13:09:00+00:00,231.4214,15.8,12.81,47.84626,-54.09684
2021-09-18 13:19:01+00:00,223.7331,15.8,12.97,47.84626,-54.09684
2021-09-18 13:29:01+00:00,221.0898,15.8,12.97,47.84626,-54.09684
2021-09-18 13:39:01+00:00,218.2164,15.8,12.97,47.84626,-54.09684
2021-09-18 13:49:01+00:00,211.1114,15.8,12.97,47.84626,-54.09684
2021-09-18 13:59:01+00:00,203.9431,15.87,12.97,47.84626,-54.09684
2021-09-18 14:09:01+00:00,198.8164,15.9,12.97,47.84626,-54.09684
2021-09-18 14:19:01+00:00,194.2731,15.9,13.13,47.84626,-54.09684
2021-09-18 14:29:01+00:00,190.2765,15.9,13.13,47.84626,-54.09684
2021-09-18 14:39:01+00:00,186.8965,15.9,13.13,47.84626,-54.09684
2021-09-18 14:49:01+00:00,186.0248,15.9,13.13,47.84626,-54.09684
2021-09-18 14:59:01+00:00,186.9164,15.9,13.13,47.84626,-54.09684
2021-09-18 15:09:01+00:00,183.8014,15.92,13.13,47.84626,-54.09684
2021-09-18 15:19:01+00:00,180.4398,15.96,13.21,47.84626,-54.09684
2021-09-18 15:29:01+00:00,180.8048,15.98,13.21,47.84626,-54.09684
2021-09-18 15:39:01+00:00,179.1331,15.98,13.21,47.84626,-54.09684
2021-09-18 15:49:01+00:00,175.5998,15.98,13.21,47.84626,-54.09684
2021-09-18 15:59:01+00:00,174.9749,15.98,13.21,47.84626,-54.09684
2021-09-18 16:09:01+00:00,176.1382,15.97,13.21,47.84626,-54.09684
2021-09-18 16:19:01+00:00,176.7981,15.97,13.21,47.84626,-54.09684
2021-09-18 16:29:01+00:00,175.0348,15.98,13.21,47.84626,-54.09684
2021-09-18 16:39:01+00:00,176.1064,15.99,13.21,47.84626,-54.09684
2021-09-18 16:49:01+00:00,184.8148,15.98,13.21,47.84626,-54.09684
2021-09-18 16:59:01+00:00,188.2765,15.98,13.21,47.84626,-54.09684
2021-09-18 17:09:01+00:00,189.5165,15.99,13.21,47.84626,-54.09684
2021-09-18 17:19:01+00:00,197.1314,16.0,13.29,47.84626,-54.09684
2021-09-18 17:29:01+00:00,202.1964,15.99,13.29,47.84626,-54.09684
2021-09-18 17:39:01+00:00,202.5481,16.0,13.29,47.84626,-54.09684
2021-09-18 17:49:01+00:00,206.3281,16.0,13.29,47.84626,-54.09684
2021-09-18 17:59:01+00:00,212.933,16.0,13.29,47.84626,-54.09684
2021-09-18 18:09:01+00:00,216.7581,16.0,13.29,47.84626,-54.09684
2021-09-18 18:19:01+00:00,218.1581,16.0,13.13,47.84626,-54.09684
2021-09-18 18:29:01+00:00,224.0764,16.0,13.13,47.84626,-54.09684
2021-09-18 18:39:01+00:00,230.9231,16.0,13.13,47.84626,-54.09684
2021-09-18 18:49:01+00:00,237.4748,16.0,13.13,47.84626,-54.09684
2021-09-18 18:59:01+00:00,245.5948,16.0,13.13,47.84626,-54.09684
2021-09-18 19:09:01+00:00,252.6981,16.0,13.13,47.84626,-54.09684
2021-09-18 19:19:01+00:00,261.2531,16.0,13.05,47.84626,-54.09684
2021-09-18 19:29:01+00:00,270.3264,16.0,13.05,47.84626,-54.09684
2021-09-18 19:39:01+00:00,280.4397,16.0,13.05,47.84626,-54.09684
2021-09-18 19:49:01+00:00,290.1947,16.0,13.05,47.84626,-54.09684
2021-09-18 19:59:01+00:00,300.9413,16.0,13.05,47.84626,-54.09684
2021-09-18 20:09:01+00:00,310.9846,16.0,13.05,47.84626,-54.09684
2021-09-18 20:19:01+00:00,319.45799999999997,16.0,12.89,47.84626,-54.09684
2021-09-18 20:29:01+00:00,326.08799999999997,16.0,12.89,47.84626,-54.09684
2021-09-18 20:39:01+00:00,330.7147,16.0,12.89,47.84626,-54.09684
2021-09-18 20:49:01+00:00,336.1363,16.0,12.89,47.84626,-54.09684
2021-09-18 20:59:01+00:00,341.5679,16.0,12.89,47.84626,-54.09684
2021-09-18 21:09:01+00:00,344.63300000000015,16.0,12.89,47.84626,-54.09684
2021-09-18 21:19:01+00:00,349.18800000000016,16.0,12.81,47.84626,-54.09684
2021-09-18 21:29:01+00:00,355.5529,16.0,12.81,47.84626,-54.09684
2021-09-18 21:39:01+00:00,356.8129,16.0,12.81,47.84626,-54.09684
2021-09-18 21:49:01+00:00,354.8913,16.0,12.81,47.84626,-54.09684
2021-09-18 21:59:01+00:00,356.2729,16.0,12.81,47.84626,-54.09684
2021-09-18 22:09:01+00:00,361.0696,16.0,12.81,47.84626,-54.09684
2021-09-18 22:19:01+00:00,359.05300000000005,16.0,12.81,47.84626,-54.09684
2021-09-18 22:29:01+00:00,357.3412,16.0,12.81,47.84626,-54.09684
2021-09-18 22:39:01+00:00,359.3995,16.0,12.81,47.84626,-54.09684
2021-09-18 22:49:01+00:00,356.9996,16.0,12.81,47.84626,-54.09684
2021-09-18 22:59:01+00:00,349.6546,16.0,12.81,47.84626,-54.09684
2021-09-18 23:09:01+00:00,348.2796,16.0,12.81,47.84626,-54.09684
2021-09-18 23:19:01+00:00,349.6129,16.0,12.73,47.84626,-54.09684
2021-09-18 23:29:01+00:00,344.8029,16.0,12.73,47.84626,-54.09684
2021-09-18 23:39:01+00:00,338.4964,16.0,12.73,47.84626,-54.09684
2021-09-18 23:49:01+00:00,337.5797,16.0,12.73,47.84626,-54.09684
2021-09-18 23:59:01+00:00,330.5863,16.0,12.73,47.84626,-54.09684
